• In Netherlands
  • List of Countries
  • For 7 days
  • Water Temperature
  • Satellite Maps
  • Weather Map
  • Weather Widgets
  • user-avatar
    Login

    Hourly Weather Amar

    Today, 29 May, Monday

    Time Temperature Precipitation Wind Pressure Humidity
    00:00 +36°C° 0 mm 7 mps 750 mmHg 32%
    01:00 +36°C° 0 mm 7 mps 750 mmHg 33%
    02:00 +36°C° 0 mm 7 mps 750 mmHg 34%
    03:00 +36°C° 0 mm 7 mps 749 mmHg 35%
    04:00 +37°C° 0 mm 8 mps 750 mmHg 36%
    05:00 +35°C° 0 mm 8 mps 750 mmHg 37%
    06:00 +35°C° 0 mm 8 mps 750 mmHg 37%
    07:00 +38°C° 0 mm 8 mps 750 mmHg 32%
    08:00 +40°C° 0 mm 9 mps 750 mmHg 27%
    09:00 +42°C° 0 mm 9 mps 751 mmHg 22%
    10:00 +44°C° 0 mm 9 mps 750 mmHg 19%
    11:00 +45°C° 0 mm 9 mps 750 mmHg 16%
    12:00 +47°C° 0 mm 9 mps 750 mmHg 14%
    13:00 +47°C° 0 mm 9 mps 750 mmHg 14%
    14:00 +47°C° 0 mm 9 mps 750 mmHg 14%
    15:00 +47°C° 0 mm 9 mps 749 mmHg 15%
    16:00 +45°C° 0 mm 9 mps 749 mmHg 16%
    17:00 +44°C° 0 mm 9 mps 749 mmHg 18%
    18:00 +43°C° 0 mm 8 mps 749 mmHg 20%
    19:00 +41°C° 0 mm 8 mps 749 mmHg 22%
    20:00 +41°C° 0 mm 8 mps 750 mmHg 23%
    21:00 +40°C° 0 mm 7 mps 750 mmHg 25%
    22:00 +40°C° 0 mm 7 mps 750 mmHg 25%
    23:00 +40°C° 0 mm 7 mps 750 mmHg 26%

    Tomorrow, 30 May, Tuesday

    Time Temperature Precipitation Wind Pressure Humidity
    00:00 +39°C° 0 mm 7 mps 749 mmHg 27%
    01:00 +39°C° 0 mm 8 mps 749 mmHg 29%
    02:00 +39°C° 0 mm 8 mps 749 mmHg 30%
    03:00 +38°C° 0 mm 8 mps 749 mmHg 32%
    04:00 +38°C° 0 mm 8 mps 749 mmHg 34%
    05:00 +38°C° 0 mm 8 mps 750 mmHg 35%
    06:00 +38°C° 0 mm 8 mps 750 mmHg 36%
    07:00 +40°C° 0 mm 8 mps 750 mmHg 31%
    08:00 +43°C° 0 mm 8 mps 750 mmHg 25%
    09:00 +45°C° 0 mm 9 mps 751 mmHg 19%
    10:00 +47°C° 0 mm 9 mps 751 mmHg 18%
    11:00 +48°C° 0 mm 9 mps 750 mmHg 16%
    12:00 +48°C° 0 mm 10 mps 750 mmHg 15%
    13:00 +48°C° 0 mm 10 mps 750 mmHg 15%
    14:00 +48°C° 0 mm 10 mps 750 mmHg 15%
    15:00 +48°C° 0 mm 11 mps 749 mmHg 14%
    16:00 +47°C° 0 mm 10 mps 749 mmHg 16%
    17:00 +45°C° 0 mm 10 mps 749 mmHg 17%
    18:00 +44°C° 0 mm 9 mps 749 mmHg 18%
    19:00 +44°C° 0 mm 9 mps 749 mmHg 20%
    20:00 +43°C° 0 mm 9 mps 750 mmHg 22%
    21:00 +41°C° 0 mm 8 mps 750 mmHg 25%
    22:00 +42°C° 0 mm 9 mps 750 mmHg 25%
    23:00 +42°C° 0 mm 9 mps 749 mmHg 26%

    Day after tomorrow, 31 May, Wednesday

    Time Temperature Precipitation Wind Pressure Humidity
    00:00 +40°C° 0 mm 9 mps 749 mmHg 26%
    01:00 +40°C° 0 mm 10 mps 749 mmHg 29%
    02:00 +39°C° 0 mm 10 mps 749 mmHg 31%
    03:00 +38°C° 0 mm 10 mps 749 mmHg 33%
    04:00 +38°C° 0 mm 10 mps 749 mmHg 33%
    05:00 +38°C° 0 mm 10 mps 750 mmHg 33%
    06:00 +38°C° 0 mm 10 mps 750 mmHg 33%
    07:00 +39°C° 0 mm 11 mps 750 mmHg 27%
    08:00 +42°C° 0 mm 11 mps 750 mmHg 22%
    09:00 +44°C° 0 mm 12 mps 751 mmHg 16%
    10:00 +44°C° 0 mm 12 mps 750 mmHg 15%
    11:00 +46°C° 0 mm 13 mps 750 mmHg 14%
    12:00 +47°C° 0 mm 13 mps 750 mmHg 13%
    13:00 +47°C° 0 mm 13 mps 749 mmHg 13%
    14:00 +47°C° 0 mm 13 mps 749 mmHg 12%
    15:00 +47°C° 0 mm 13 mps 748 mmHg 12%
    16:00 +47°C° 0 mm 13 mps 748 mmHg 13%
    17:00 +46°C° 0 mm 12 mps 748 mmHg 15%
    18:00 +44°C° 0 mm 11 mps 748 mmHg 16%
    19:00 +44°C° 0 mm 11 mps 748 mmHg 17%
    20:00 +43°C° 0 mm 10 mps 748 mmHg 19%
    21:00 +42°C° 0 mm 10 mps 749 mmHg 20%
    22:00 +42°C° 0 mm 10 mps 748 mmHg 22%
    23:00 +40°C° 0 mm 10 mps 748 mmHg 23%

    1 June, Thursday

    Time Temperature Precipitation Wind Pressure Humidity
    00:00 +41°C° 0 mm 11 mps 748 mmHg 24%
    01:00 +39°C° 0 mm 11 mps 748 mmHg 25%
    02:00 +39°C° 0 mm 11 mps 748 mmHg 26%
    03:00 +38°C° 0 mm 11 mps 748 mmHg 27%
    04:00 +38°C° 0 mm 11 mps 748 mmHg 29%
    05:00 +38°C° 0 mm 12 mps 749 mmHg 30%
    06:00 +38°C° 0 mm 12 mps 749 mmHg 31%
    07:00 +39°C° 0 mm 12 mps 749 mmHg 28%
    08:00 +41°C° 0 mm 13 mps 749 mmHg 24%
    09:00 +43°C° 0 mm 13 mps 750 mmHg 20%
    10:00 +43°C° 0 mm 13 mps 750 mmHg 19%
    11:00 +45°C° 0 mm 13 mps 749 mmHg 17%
    12:00 +45°C° 0 mm 13 mps 749 mmHg 16%
    13:00 +45°C° 0 mm 13 mps 749 mmHg 15%
    14:00 +46°C° 0 mm 13 mps 748 mmHg 15%
    15:00 +46°C° 0 mm 13 mps 748 mmHg 14%
    16:00 +44°C° 0 mm 12 mps 748 mmHg 15%
    17:00 +43°C° 0 mm 12 mps 748 mmHg 17%
    18:00 +43°C° 0 mm 11 mps 748 mmHg 18%
    19:00 +42°C° 0 mm 11 mps 748 mmHg 21%
    20:00 +40°C° 0 mm 10 mps 748 mmHg 23%
    21:00 +40°C° 0 mm 10 mps 749 mmHg 25%
    22:00 +39°C° 0 mm 10 mps 748 mmHg 27%
    23:00 +39°C° 0 mm 10 mps 748 mmHg 28%

    2 June, Friday

    Time Temperature Precipitation Wind Pressure Humidity
    00:00 +39°C° 0 mm 10 mps 748 mmHg 30%
    01:00 +38°C° 0 mm 10 mps 748 mmHg 32%
    02:00 +37°C° 0 mm 10 mps 748 mmHg 35%
    03:00 +37°C° 0 mm 10 mps 748 mmHg 37%
    04:00 +37°C° 0 mm 9 mps 748 mmHg 38%
    05:00 +35°C° 0 mm 9 mps 748 mmHg 39%
    06:00 +35°C° 0 mm 8 mps 749 mmHg 40%
    07:00 +38°C° 0 mm 9 mps 749 mmHg 34%
    08:00 +39°C° 0 mm 9 mps 749 mmHg 27%
    09:00 +42°C° 0 mm 9 mps 749 mmHg 21%
    10:00 +43°C° 0 mm 9 mps 749 mmHg 19%
    11:00 +44°C° 0 mm 9 mps 749 mmHg 17%
    12:00 +44°C° 0 mm 9 mps 749 mmHg 15%
    13:00 +44°C° 0 mm 9 mps 748 mmHg 15%
    14:00 +44°C° 0 mm 10 mps 748 mmHg 15%
    15:00 +44°C° 0 mm 10 mps 748 mmHg 15%
    16:00 +43°C° 0 mm 10 mps 748 mmHg 16%
    17:00 +42°C° 0 mm 9 mps 748 mmHg 18%
    18:00 +40°C° 0 mm 9 mps 748 mmHg 19%
    19:00 +39°C° 0 mm 8 mps 748 mmHg 21%
    20:00 +39°C° 0 mm 7 mps 748 mmHg 23%
    21:00 +38°C° 0 mm 7 mps 749 mmHg 25%
    22:00 +38°C° 0 mm 7 mps 748 mmHg 26%
    23:00 +38°C° 0 mm 6 mps 748 mmHg 28%

    3 June, Saturday

    Time Temperature Precipitation Wind Pressure Humidity
    00:00 +36°C° 0 mm 6 mps 747 mmHg 29%
    01:00 +36°C° 0 mm 6 mps 747 mmHg 33%
    02:00 +36°C° 0 mm 6 mps 747 mmHg 36%
    03:00 +35°C° 0 mm 6 mps 747 mmHg 39%
    04:00 +35°C° 0 mm 6 mps 747 mmHg 41%
    05:00 +35°C° 0 mm 5 mps 748 mmHg 42%
    06:00 +35°C° 0 mm 5 mps 748 mmHg 43%
    07:00 +37°C° 0 mm 5 mps 749 mmHg 36%
    08:00 +40°C° 0 mm 4 mps 749 mmHg 30%
    09:00 +42°C° 0 mm 4 mps 749 mmHg 23%
    10:00 +43°C° 0 mm 4 mps 749 mmHg 21%
    11:00 +44°C° 0 mm 3 mps 749 mmHg 19%
    12:00 +45°C° 0 mm 3 mps 748 mmHg 16%
    13:00 +45°C° 0 mm 4 mps 748 mmHg 16%
    14:00 +45°C° 0 mm 4 mps 748 mmHg 16%
    15:00 +46°C° 0 mm 5 mps 747 mmHg 16%
    16:00 +43°C° 0 mm 5 mps 747 mmHg 22%
    17:00 +41°C° 0 mm 6 mps 748 mmHg 28%
    18:00 +39°C° 0 mm 6 mps 748 mmHg 34%
    19:00 +38°C° 0 mm 6 mps 748 mmHg 36%
    20:00 +37°C° 0 mm 5 mps 748 mmHg 38%
    21:00 +36°C° 0 mm 5 mps 748 mmHg 41%
    22:00 +36°C° 0 mm 4 mps 748 mmHg 41%
    23:00 +36°C° 0 mm 4 mps 748 mmHg 41%
    Show more